Location: Big Prairie
(40.6673°N, 82.0952°W)
Time: 21:08:53
(UTC+00:00)

Cosmos 841 Rocket - Pass Details

Date: 02 July 2022
Orbit: 746 x 772 km, 74.0° (Epoch: 11 August)

Event Time Altitude Azimuth Distance (km) Brightness Sun altitude
Exits shadow 06:07:07 12° 105° (ESE) 2,103 5.7 -25.8°
Maximum altitude 06:08:00 13° 94° (E) 2,073 5.8 -25.8°
Drops below altitude 10° 06:10:13 10° 68° (ENE) 2,271 6.3 -25.7°
Sets 06:13:54 0° 41° (NE) 3,206 7.6 -25.6°
